[[{"header":{"parameterUnit":"m.s-1","parameterCategory":1,"la1":30.2991,"la2":30.254,"lo1":-89.0895,"lo2":-89.0444,"dy":0.0017,"dx":0.0017,"nx":28,"ny":28,"refTime":"2024-08-16T21:00:00:Z","depth":0,"parameterNumber":2,"parameterNumberName":"U-component_of_WINDS"},"data":[0,0,0,0,0,0,0,0,0,0,0,0,0,0,0,0,0,0,0,0,0,0,0,0,0,0,0,0,0,0,0,0,0,0,0,0,0,0,0,0,0,0,0,0,0,0,0,0,0,0,0,0,0,0,0,0,0,0,1.8024,1.8025,0,1.8049,1.8049,1.805,1.8036,1.8036,1.8035,1.8035,1.8058,1.8059,1.806,0,0,0,0,0,0,0,0,0,0,0,0,0,1.7963,1.7964,1.8024,1.8025,1.8025,1.8049,1.8049,1.805,1.8037,1.8036,1.8035,1.8034,1.8057,1.8059,1.806,0,0,0,0,0,0,0,0,0,0,0,0,0,1.7988,1.7964,1.8024,1.8021,1.8021,1.8049,1.8049,1.805,1.8037,1.8036,1.8035,1.8034,1.8057,1.8059,1.806,1.8091,0,0,1.8066,1.8067,0,0,0,0,0,0,0,0,1.7987,1.7991,1.8022,1.8022,1.8022,1.8039,1.8036,1.8064,1.8037,1.8031,1.8035,1.8033,1.8052,1.8054,1.8061,1.8092,1.8093,1.8066,1.8067,1.8068,1.8069,0,0,0,0,0,0,0,1.7985,1.799,1.8034,1.8022,1.8022,1.8018,1.802,1.8041,1.8047,1.8031,1.803,1.8034,1.8052,1.8059,1.8061,1.8094,1.8066,1.8068,1.8069,1.807,1.8149,1.815,0,0,0,0,0,0,1.7984,1.7988,1.8033,1.8035,1.8002,1.802,1.8023,1.8034,1.8046,1.8047,1.8034,1.8033,1.8056,1.8059,1.8062,1.8097,1.8068,1.807,1.8071,1.8148,1.8149,1.815,0,0,0,0,0,0,1.7983,1.7988,1.8032,1.8011,1.8017,1.8022,1.8035,1.8035,1.8042,1.8049,1.8049,1.8041,1.8056,1.8059,1.8084,1.8097,1.8071,1.8072,1.8146,1.8148,1.8149,1.8168,0,0,0,0,0,0,1.7981,1.7988,1.8001,1.8012,1.8018,1.8055,1.8036,1.8036,1.8046,1.8044,1.8055,1.8056,1.8055,1.8081,1.8085,1.8099,1.8074,1.8145,1.8147,1.8149,1.8166,1.817,1.8173,0,0,0,0,0,1.7979,1.8005,1.8001,1.8007,1.8034,1.8055,1.8059,1.8058,1.8047,1.8059,1.8063,1.8056,1.8096,1.8083,1.8088,1.8103,1.8144,1.8147,1.8149,1.8164,1.8169,1.8173,0,0,0,0,0,0,1.7996,1.8007,1.8003,1.8034,1.8044,1.8053,1.8069,1.8063,1.8076,1.8074,1.8072,1.8075,1.8099,1.8104,1.809,1.8132,1.8118,1.8121,1.8128,1.8133,1.8136,1.8134,1.8075,0,0,0,0,0,1.8003,1.802,1.8029,1.8055,1.806,1.8064,1.8073,1.8071,1.8081,1.8086,1.8091,1.81,1.8115,1.8124,1.8138,1.8167,1.8168,1.8179,1.8183,1.8186,1.8188,1.8201,1.8205,1.8157,1.8157,1.8157,0,0,1.8018,1.8026,1.8038,1.8059,1.8066,1.8082,1.8067,1.8086,1.8098,1.8088,1.8111,1.8115,1.8125,1.8151,1.8163,1.8156,1.8202,1.8189,1.8191,1.8192,1.8204,1.8208,1.8212,1.8159,1.8158,1.8158,0,0,1.8054,1.8063,1.8084,1.8092,1.8104,1.8105,1.811,1.812,1.8123,1.8145,1.8138,1.8151,1.8177,1.8183,1.819,1.8226,1.8219,1.8231,1.8248,1.8261,1.8265,1.8268,1.8278,1.8282,1.8233,1.8233,1.8233,0,1.8071,1.8097,1.8096,1.8114,1.8123,1.8115,1.8135,1.8143,1.8158,1.8163,1.8156,1.8186,1.8192,1.8218,1.8227,1.8233,1.8237,1.8229,1.8264,1.8268,1.8271,1.828,1.8285,1.8234,1.8234,1.8234,1.8234,0,1.8115,1.8133,1.8149,1.8163,1.8174,1.8193,1.8194,1.8204,1.8201,1.8203,1.8225,1.8232,1.8246,1.8253,1.825,1.8277,1.8272,1.8265,1.825,1.8276,1.8285,1.8289,1.8236,1.8236,1.8235,1.8235,0,0,1.8163,1.8175,1.8181,1.8186,1.8198,1.821,1.8229,1.8242,1.825,1.826,1.8274,1.8295,1.8287,1.8294,1.8293,1.8304,1.8328,1.8294,1.8294,1.8298,1.8356,1.836,1.8365,1.8325,1.8325,1.8326,1.8354,0,1.8197,1.8229,1.8228,1.8257,1.8272,1.8264,1.8279,1.8287,1.8289,1.8301,1.8303,1.8316,1.8306,1.831,1.8321,1.8323,1.834,1.8322,1.8335,1.8336,1.8331,1.837,1.8375,1.8402,1.8358,1.8359,1.8359,0,1.8242,1.8253,1.8283,1.829,1.8296,1.831,1.8321,1.8333,1.8341,1.8341,1.8349,1.8345,1.8361,1.8347,1.8368,1.8356,1.8361,1.8363,1.8364,1.8364,1.8348,1.8369,1.841,1.8414,1.8365,1.8365,1.8364,0,1.8269,1.8292,1.8313,1.8318,1.8327,1.8336,1.8341,1.8347,1.8355,1.8364,1.8369,1.838,1.8386,1.8394,1.8393,1.8383,1.8414,1.84,1.8413,1.8413,1.8418,1.8418,1.8459,1.8425,1.8425,1.8425,1.8425,0,1.8307,1.8325,1.8325,1.8337,1.8357,1.8355,1.8374,1.8377,1.8383,1.8394,1.8389,1.84,1.8398,1.8408,1.8407,1.8424,1.8427,1.8426,1.8426,1.8426,1.8426,1.8428,1.8426,1.8426,1.8426,1.8426,1.8426,0,1.8341,1.8342,1.8363,1.837,1.8371,1.8385,1.839,1.8401,1.8402,1.8417,1.842,1.8421,1.8433,1.8433,1.8447,1.8446,1.8465,1.8463,1.8462,1.8461,1.8473,1.8471,1.8517,1.8521,1.8486,1.8486,1.8487,0,1.8364,1.8377,1.8385,1.8392,1.8396,1.8409,1.8416,1.8414,1.8422,1.843,1.844,1.8451,1.846,1.8479,1.848,1.849,1.8487,1.8502,1.8488,1.8488,1.8485,1.8483,1.8483,1.8504,1.8505,1.8505,1.8505,0,1.8403,1.8402,1.8413,1.8423,1.8432,1.844,1.8448,1.8454,1.8452,1.8461,1.8473,1.848,1.8493,1.8503,1.8512,1.8515,1.8509,1.851,1.8513,1.8512,1.8511,1.8509,1.8468,1.8509,1.8508,1.8508,1.8508,1.8508,1.843,1.8441,1.8447,1.8459,1.8464,1.8471,1.848,1.8482,1.8492,1.8503,1.8501,1.8514,1.8519,1.8531,1.8534,1.8544,1.8538,1.8543,1.8544,1.8545,1.8545,1.8511,1.8545,1.8545,1.8545,1.8545,1.8545,0,1.8467,1.847,1.8481,1.8491,1.85,1.8494,1.8501,1.8508,1.852,1.8525,1.8534,1.8546,1.8556,1.8558,1.8567,1.8574,1.8571,1.8576,1.8575,1.8575,1.8551,1.8546,1.8578,1.8578,1.8578,1.8578,1.8578,1.8578,1.8487,1.8504,1.8504,1.8523,1.8526,1.8538,1.8542,1.8548,1.8552,1.8566,1.8574,1.8575,1.8579,1.8588,1.8596,1.8597,1.8599,1.8605,1.8604,1.858,1.8577,1.8574,1.8569,1.8606,1.8606,1.8627,1.8627,1.8627]},{"header":{"parameterUnit":"m.s-1","parameterCategory":1,"la1":30.2991,"la2":30.254,"lo1":-89.0895,"lo2":-89.0444,"dy":0.0017,"dx":0.0017,"nx":28,"ny":28,"refTime":"2024-08-16T21:00:00:Z","depth":0,"parameterNumber":3,"parameterNumberName":"V-component_of_WINDS"},"data":[0,0,0,0,0,0,0,0,0,0,0,0,0,0,0,0,0,0,0,0,0,0,0,0,0,0,0,0,0,0,0,0,0,0,0,0,0,0,0,0,0,0,0,0,0,0,0,0,0,0,0,0,0,0,0,0,0,0,0.1804,0.1804,0,0.1871,0.1872,0.1873,0.1891,0.189,0.189,0.189,0.1958,0.196,0.1962,0,0,0,0,0,0,0,0,0,0,0,0,0,0.1688,0.169,0.1804,0.1804,0.1805,0.1871,0.1872,0.1873,0.1891,0.189,0.189,0.189,0.1957,0.196,0.1962,0,0,0,0,0,0,0,0,0,0,0,0,0,0.1745,0.1691,0.1803,0.1822,0.1825,0.1871,0.1872,0.1873,0.1891,0.189,0.189,0.1889,0.1956,0.1959,0.1963,0.1994,0,0,0.1973,0.1974,0,0,0,0,0,0,0,0,0.1742,0.1749,0.1819,0.1821,0.1824,0.1872,0.1856,0.1914,0.1891,0.1866,0.189,0.1889,0.193,0.1935,0.1949,0.1998,0.2001,0.1973,0.1975,0.1976,0.1977,0,0,0,0,0,0,0,0.1738,0.1747,0.183,0.182,0.1823,0.1827,0.1834,0.1867,0.19,0.1868,0.1869,0.1877,0.1931,0.1946,0.1951,0.2002,0.1973,0.1976,0.1978,0.1979,0.2077,0.2078,0,0,0,0,0,0,0.1731,0.1743,0.1828,0.1832,0.1781,0.1829,0.1837,0.1857,0.19,0.1906,0.1878,0.1878,0.194,0.1947,0.1953,0.1992,0.1976,0.1979,0.1981,0.2077,0.2078,0.2078,0,0,0,0,0,0,0.1729,0.1738,0.1825,0.1788,0.18,0.1832,0.1854,0.1859,0.1874,0.1907,0.1913,0.1887,0.194,0.1949,0.1984,0.1995,0.1981,0.1984,0.2076,0.2077,0.2078,0.2071,0,0,0,0,0,0,0.1725,0.1737,0.1751,0.1788,0.1801,0.1856,0.1854,0.186,0.1879,0.188,0.1917,0.1923,0.194,0.1979,0.1987,0.1999,0.1986,0.2075,0.2077,0.2078,0.207,0.2072,0.2073,0,0,0,0,0,0.1721,0.1746,0.1751,0.1761,0.1819,0.1856,0.1864,0.1883,0.188,0.1893,0.1914,0.1922,0.1992,0.1982,0.1992,0.2005,0.2075,0.2076,0.2078,0.207,0.2071,0.2073,0,0,0,0,0,0,0.1709,0.1752,0.1758,0.1796,0.1822,0.1859,0.1877,0.1885,0.1912,0.1912,0.1935,0.1943,0.1976,0.1994,0.1982,0.2037,0.2033,0.2037,0.2024,0.2026,0.2027,0.2022,0.1989,0,0,0,0,0,0.1711,0.1739,0.1774,0.1804,0.1817,0.1844,0.1861,0.1874,0.1902,0.1914,0.1937,0.1964,0.1992,0.201,0.2037,0.2073,0.208,0.2086,0.2087,0.2088,0.2091,0.2109,0.2112,0.2083,0.2083,0.2083,0,0,0.1716,0.1742,0.1758,0.1803,0.1824,0.1851,0.1854,0.1883,0.1903,0.1918,0.1952,0.197,0.2001,0.2036,0.2053,0.2052,0.21,0.209,0.209,0.2093,0.2111,0.2114,0.2116,0.2084,0.2084,0.2084,0,0,0.1737,0.176,0.1787,0.1809,0.1842,0.1859,0.1866,0.1901,0.1913,0.1948,0.196,0.1983,0.2031,0.2052,0.2069,0.2096,0.2104,0.2104,0.2111,0.2128,0.213,0.2132,0.2141,0.2144,0.2107,0.2107,0.2107,0,0.1738,0.178,0.18,0.1828,0.1847,0.1861,0.1888,0.1908,0.1948,0.196,0.1958,0.2018,0.204,0.2079,0.2085,0.2099,0.2106,0.2101,0.2128,0.2131,0.2133,0.2141,0.2145,0.2107,0.2107,0.2107,0.2107,0,0.1779,0.1808,0.1825,0.1863,0.1884,0.1911,0.1934,0.1953,0.1963,0.198,0.2014,0.2041,0.2073,0.2083,0.2094,0.2124,0.2122,0.2124,0.2121,0.2135,0.2143,0.2147,0.2107,0.2107,0.2107,0.2107,0,0,0.1797,0.1844,0.185,0.1867,0.1903,0.1925,0.1952,0.1984,0.1998,0.2025,0.2047,0.2086,0.2088,0.2107,0.212,0.2135,0.2153,0.2136,0.2137,0.2137,0.2186,0.2184,0.2188,0.2158,0.2159,0.2159,0.2183,0,0.1823,0.1872,0.189,0.193,0.1956,0.1969,0.1992,0.2016,0.2032,0.2056,0.2074,0.2101,0.2101,0.2113,0.2128,0.2148,0.2163,0.2146,0.2179,0.2179,0.2171,0.2192,0.2191,0.2212,0.2187,0.2187,0.2188,0,0.186,0.1886,0.1929,0.196,0.1971,0.1992,0.2022,0.2044,0.2071,0.2082,0.2102,0.2113,0.214,0.2135,0.2172,0.216,0.2174,0.2186,0.2187,0.2191,0.2185,0.2196,0.2219,0.2222,0.2193,0.2193,0.2192,0,0.1867,0.1913,0.1945,0.1958,0.1996,0.201,0.2026,0.2052,0.2069,0.2095,0.2106,0.2134,0.2149,0.217,0.2188,0.2183,0.2223,0.222,0.2232,0.2232,0.224,0.224,0.2266,0.225,0.2249,0.2249,0.2249,0,0.1894,0.192,0.1948,0.1967,0.1996,0.2015,0.2042,0.2059,0.2082,0.2104,0.2116,0.2136,0.2159,0.2181,0.2195,0.2223,0.223,0.2239,0.2242,0.2238,0.2237,0.2247,0.2246,0.225,0.225,0.225,0.225,0,0.1908,0.1928,0.1963,0.1995,0.2003,0.2023,0.205,0.2068,0.2084,0.2111,0.2119,0.2144,0.2171,0.219,0.2225,0.2235,0.2264,0.2268,0.2255,0.2257,0.2268,0.2266,0.2302,0.2307,0.2287,0.2288,0.2288,0,0.1924,0.1943,0.1977,0.1992,0.2008,0.2033,0.2051,0.207,0.2087,0.2118,0.2132,0.216,0.2183,0.2225,0.2246,0.2272,0.2277,0.2287,0.2281,0.2275,0.2276,0.2274,0.2276,0.2288,0.2288,0.2288,0.2288,0,0.1949,0.1958,0.1982,0.201,0.203,0.2053,0.2076,0.2087,0.211,0.2129,0.2156,0.2174,0.2209,0.2236,0.2264,0.228,0.2287,0.229,0.2294,0.229,0.2281,0.2285,0.2258,0.2289,0.2289,0.2289,0.2289,0.2289,0.1964,0.1982,0.2008,0.2034,0.2053,0.2073,0.2092,0.2109,0.2133,0.2163,0.2172,0.2201,0.2225,0.2263,0.2279,0.2301,0.23,0.2306,0.2308,0.2309,0.2308,0.2278,0.2306,0.2306,0.2306,0.2306,0.2306,0,0.199,0.2007,0.2031,0.2062,0.2082,0.2087,0.2112,0.2128,0.2153,0.2175,0.2198,0.2228,0.2254,0.2276,0.2302,0.2315,0.2319,0.2321,0.2321,0.2324,0.2308,0.2301,0.2318,0.2318,0.2318,0.2318,0.2317,0.2317,0.2006,0.2035,0.2046,0.2084,0.2101,0.2129,0.2142,0.2161,0.2178,0.2212,0.2233,0.2247,0.2269,0.2297,0.232,0.2325,0.2334,0.2336,0.2342,0.2327,0.2325,0.2324,0.2318,0.2337,0.2337,0.2356,0.2357,0.2357]}]]